Regional Weather Roundup
Issued by NWS Goodland, KS

Home | Current Version | Previous Version | Graphics & Text | Print | Product List | Glossary On
Versions: 1 2 3 4 5 6 7 8 9 10 11 12 13 14 15 16 17 18 19 20 21 22 23 24 25 26 27 28 29 30 31 32 33 34 35 36 37 38 39 40 41 42 43 44 45 46 47 48 49 50
000
ASUS43 KGLD 152308
RWRGLD

GOODLAND FORECAST AREA HOURLY WEATHER ROUNDUP
NATIONAL WEATHER SERVICE GOODLAND KS
500 PM MDT TUE APR 15 2014

...OFFICIAL OBSERVATIONS...

CITY           SKY/WX    TMP DP  RH WIND       PRES   REMARKS
GOODLAND KS    PTSUNNY   64  17  16 S18G24    29.77F
HILL CITY KS   CLOUDY    66  19  16 SW15G29   29.80F
IMPERIAL NEB   MOSUNNY   66  17  15 SW12      29.71F
MCCOOK NEB     PTSUNNY   66  24  20 SW8       29.73F
AKRON CO       MOSUNNY   60  29  30 S18G24    29.73F
BURLINGTON CO  CLOUDY    64  14  14 SW21G26   29.78F
LIMON CO       PTSUNNY   60  21  22 S17G23    29.77F
$$

...UNOFFICIAL OBSERVATIONS...

CITY           SKY/WX    TMP DP  RH WIND       PRES   REMARKS
COLBY KS       SUNNY     64  27  24 S17G24    29.79F
GOVE KS          N/A     65  32  29 S17G25      N/A
LENORA KS        N/A     64  32  30 S20         N/A
LEOTI KS         N/A     64  32  30 S8          N/A
NORTON KS      SUNNY     63  21  20 S18G26    29.77S
OBERLIN KS     FAIR      66  19  16 SW20G25   29.75F
SHARON SPRINGS   N/A     64  23  21 S13G23      N/A
ST FRANCIS KS  MOSUNNY   64   7  10 S18G25    29.74
WAKEENEY KS      N/A     66  27  23 MISG        N/A
TRENTON NEB      N/A     68  32  26 SW12G20     N/A
KIT CARSON CO    N/A     63  24  22 MISG        N/A
$$



USA.gov is the U.S. government's official web portal to all federal, state and local government web resources and services.